Regional Weather Roundup
Issued by NWS

Home | Current Version | Previous Version | Text Only | Print | Product List | Glossary Off
Versions: 1 2 3 4 5 6 7 8 9 10 11 12 13 14 15 16 17 18 19 20 21 22 23 24 25 26 27 28 29 30 31 32 33 34 35 36 37 38 39 40 41 42 43 44 45 46 47 48 49 50

000
ASUS45 KBOU 021907
RWRCO

WEATHER ROUNDUP FOR COLORADO
NATIONAL WEATHER SERVICE DENVER/BOULDER CO
100 PM MDT TUE JUN 02 2015

NOTE: "FAIR" INDICATES FEW OR NO CLOUDS BELOW 12000 FEET WITH NO
SIGNIFICANT WEATHER AND/OR OBSTRUCTIONS TO VISIBILITY.

COZ001>005-013-030-031-022000-
...NORTHWEST COLORADO...

CITY           SKY/WX    TMP DP  RH WIND       PRES   REMARKS
CRAIG          SUNNY     77  33  20 W17       30.04F
HAYDEN         SUNNY     73  28  19 SW18G30   30.06F
MEEKER         SUNNY     77  29  17 SW14G28   30.06F
MOUNT WERNER   NOT AVBL
STEAMBOAT SPGS SUNNY     72  33  23 SW15G23   30.08F
WALDEN         MOSUNNY   70  27  19 SW12G21   30.16S
$$

COZ006>008-011-022000-
...WEST CENTRAL VALLEYS...

CITY           SKY/WX    TMP DP  RH WIND       PRES   REMARKS
GRAND JUNCTION SUNNY     83  24  11 W12       29.97F
MONTROSE       SUNNY     83  20   9 SW13G25   30.07F
EAGLE          MOSUNNY   84  30  14 SW22G28   30.08F
RIFLE          SUNNY     81  30  15 W16       30.00F
DELTA          SUNNY     88  18   7 S20G25    30.01F
NUCLA          SUNNY     81  18   9 SW12G29   30.12F
$$

COZ017>023-064>068-022000-
...SOUTHWEST COLORADO...

CITY           SKY/WX    TMP DP  RH WIND       PRES   REMARKS
DURANGO        SUNNY     76  18  11 W10G20    30.18F
CORTEZ         SUNNY     81  23  11 S13G21    30.13F
PAGOSA SPRINGS SUNNY     73  14  10 SW10G20   30.25F
TELLURIDE      SUNNY     68  15  13 SW15G28   30.31S
WOLF CREEK PAS NOT AVBL
$$

COZ009-010-012-014-032>034-037-058>063-022000-
...CENTRAL COLORADO...

CITY           SKY/WX    TMP DP  RH WIND       PRES   REMARKS
ASPEN          SUNNY     72  22  15 W9G16     30.17F
BUENA VISTA    SUNNY     74  15  10 NW8G21    30.16F
COPPER MTN     SUNNY     54  10  17 W20G28    30.45F
BERTHOUD PASS  FAIR      45  37  76 MISG      30.49S
COTTONWOOD PAS NOT AVBL
GUNNISON       SUNNY     72  28  20 SW8G16    30.21F
KREMMLING      SUNNY     75  21  13 W16       30.14S
LEADVILLE      SUNNY     62  12  14 W13G26    30.30F
MONARCH PASS   SUNNY     52  25  35 W22G28    30.57F
SALIDA         SUNNY     77  28  16 S9G18     30.21F
SUNLIGHT       SUNNY     59  23  25 SW3       30.38F
WILKERSON PASS SUNNY     61  21  21 SW10G22   30.42F
$$

COZ069>075-022000-
...SAN LUIS VALLEY/SANGRE DE CRISTO MOUNTAINS...

CITY           SKY/WX    TMP DP  RH WIND       PRES   REMARKS
ALAMOSA        SUNNY     77  17  10 S10G22    30.18F
LA VETA PASS   SUNNY    N/A N/A N/A MISG      30.36S
SAGUACHE       SUNNY     72  37  28 SE8       30.21F
$$

COZ035-036-038>040-022000-
...NORTHERN COLORADO FRONT RANGE...

CITY           SKY/WX    TMP DP  RH WIND       PRES   REMARKS
DENVER INTL AP MOSUNNY   84  41  21 NE5       29.95F
DMNS CITY PARK   N/A     87  37  17 N5        29.93F
AURORA         MOSUNNY   83  38  20 W6        29.97F
FRONT RANGE AP MOSUNNY   86  34  15 VRB6      29.97F
ERIE MUNI ARPT SUNNY     85  34  16 NE5       29.92F
BOULDER MUN AP SUNNY     84  37  18 NE6       29.93F
CENTENNIAL     MOSUNNY   84  33  16 S15G22    29.98F
BROOMFIELD     MOSUNNY   84  34  16 VRB6      29.97F
FORT COLLINS   SUNNY     84  48  28 S8        29.91F
LONGMONT       SUNNY     90  36  14 E3        29.93F
$$

COZ041-046-047-076>085-087-088-022000-
...PIKES PEAK/PALMER DIVIDE AND SOUTHERN FOOTHILLS...

CITY           SKY/WX    TMP DP  RH WIND       PRES   REMARKS
COLO. SPRINGS  PTSUNNY   84  31  14 VRB6      30.02F
A. F. ACADEMY  MOSUNNY   80  27  14 SE6G16    30.03F
ELLICOTT       SUNNY    N/A N/A N/A SW15G21   30.02F
FALCON         SUNNY     80  24  12 S10       30.09F
FORT CARSON    NOT AVBL
LIMON          SUNNY     82  42  24 W7        29.97F
MONUMENT HILL  SUNNY     79  28  15 SE12G17   30.09F
TRINIDAD       SUNNY     85  37  18 E8        30.02F
$$

COZ042>045-048>051-090-091-022000-
...NORTHEAST COLORADO...

CITY           SKY/WX    TMP DP  RH WIND       PRES   REMARKS
GREELEY ARPT   SUNNY     82  55  39 CALM      29.91F
AKRON          MOSUNNY   81  50  33 W10       29.92F
BURLINGTON     SUNNY     84  54  35 SW12      29.91F
WRAY           SUNNY     84  60  45 CALM      29.88F
STERLING       MOSUNNY   81  59  47 S7        29.86F
HOLYOKE        NOT AVBL
FORT MORGAN    MOSUNNY   79  53  40 W7        29.91F
$$

COZ086-089-092>099-022000-
...SOUTHEAST COLORADO...

CITY           SKY/WX    TMP DP  RH WIND       PRES   REMARKS
PUEBLO         SUNNY     86  38  18 S3        29.93F
LA JUNTA       MOSUNNY   86  53  32 W6        29.91F
LAMAR          SUNNY     87  55  33 VRB3      29.87F
SPRINGFIELD      N/A     87  48  25 E3        29.94F
$$



USA.gov is the U.S. government's official web portal to all federal, state and local government web resources and services.